CZ-6A DEB, 54470

Orbit data source: Space-Track

CZ-6A DEB, 54470 is space debris in SSO originally from a launch on Fri, 11 Nov 2022 UTC launched from the Taiyaun Space Center, China (TSC). Debris objects in space refer to the collection of defunct objects orbiting the Earth. Examples of debris include non-operational satellites, rocket bodies, and fragments generated from explosions, collisions, or faulty payload assembly.

Loading next visibility...
Identifier
54470, 2022-151GW
Orbit
SSO
Country
Flag of CNCN / PRC
Related business
Manufacturer
SAST
Mission
Spacecraft
Bus & Motor
Unknown
Mass
Unknown
Launch date (UTC)
2022-11-11 (3 years ago)
Launch vehicle
Unknown
Launch site
Taiyaun Space Center, China (TSC)
Object type
Payload
Rocket body
Debris
Shape & HBR
Unknown shape, 0.1 m
Radar Cross Section
Small (<0.1 m²)

Expand to show TLE details & history
Last TLE update: 14 hours ago

TLE from 14 hours ago
0 CZ-6A DEB
1 54470U 22151GW  26130.13821221  .00006292  00000-0  11394-2 0  9992
2 54470  98.6274 186.4732 0075949  72.7052 288.2441 14.64822315182901
Epoch: 2026-05-10T03:19Z
TLE epoch observation values (Epoch: 2026-05-10T03:19:01.534Z)
Latitude
-0.00006°
Longitude
-91.22878°
Altitude
664.213 km
Speed
7.534 km/s
True Right ascension
12h 25m 53s
True Declination
0° 00' 00"
Sunlit
Object was in full shadow at epoch
Visualization orbit readout
Latitude
Unknown
Longitude
Unknown
Altitude
Unknown
Speed
Unknown
Apparent Right ascension
Unknown
Apparent Declination
Unknown
Sunlit
N/A
Visualization observer readout
Local Sidereal Time
01:06:59
Azimuth
Unknown
Elevation
Unknown
Doppler factor
Unknown
Orbital elements
Apogee altitude
728.307 km
Perigee altitude
621.175 km
Semi-major axis
7,052.878 km
Eccentricity
0.00759
Inclination
98.6274°
RAAN
186.4732°
Arg. of periapsis
72.7052°
True anomaly
287.4151°
Mean anomaly
288.2441°
Eccentric anomaly
287.82984°
Mean motion
3.66432 °/min
Orbital period
98.24 mins
BSTAR
0.0011394
Loading maneuver chart data...
Computing Atmospheric mass density...
Loading historical data...
Loading historical data...
Loading historical data...
Loading historical data...
Loading historical data...
Loading historical data...
Loading historical data...

Documentation

Showing up to 5 results
|